[Date Prev][Date Next][Thread Prev][Thread Next] - [Date Index][Thread Index][Author Index]

2 Line ISS Keps 8-2



ISS
1 25544U 98067A   03214.80132799  .00013446  00000-0  16366-3 0  2894
2 25544  51.6314 145.6661 0008318  80.3067  27.7359 15.60838368268282


----
Via the sarex mailing list at AMSAT.ORG courtesy of AMSAT-NA.
To unsubscribe, send "unsubscribe sarex" to Majordomo@amsat.org



AMSAT Top AMSAT Home